DW6599 Weather Reports


time (UTC)temp
C
wind
direction
speed
KPH
gust
KPH
rain 1hr
cm
rain 24hr
cm
rain mn
cm
humidity
%
barometer
mb
20260506092359 10 10 16.1 16.1 0.00 0.00 0.00 79 1012.5
20260506091859 10 10 16.1 16.1 0.00 0.00 0.00 79 1012.4
20260506091359 10 10 16.1 16.1 0.00 0.00 0.00 79 1012.3
20260506090859 10 10 16.1 16.1 0.00 0.00 0.00 79 1012.3
20260506090359 10 10 16.1 16.1 0.00 0.00 0.00 79 1012.3
20260506085859 10 30 16.1 16.1 0.00 0.00 0.00 79 1012.1
20260506085400 10 30 16.1 16.1 0.00 0.00 0.00 79 1012.2
20260506084859 10 30 16.1 38.6 0.00 0.00 0.00 79 1012.1
20260506083859 10 30 22.5 38.6 0.00 0.00 0.00 79 1011.6
20260506083359 10 30 22.5 38.6 0.00 0.00 0.00 78 1011.8
20260506082359 10 20 19.3 32.2 0.00 0.00 0.00 78 1011.9
20260506081859 10 20 19.3 32.2 0.00 0.00 0.00 78 1011.8
20260506081359 10 20 19.3 32.2 0.00 0.00 0.00 78 1011.5
20260506080359 11 20 19.3 32.2 0.00 0.00 0.00 76 1011.6
20260506073400 11 20 12.9 14.5 0.00 0.00 0.00 75 1011.6
20260506072859 11 10 14.5 14.5 0.00 0.00 0.00 75 1011.7
20260506072400 11 10 14.5 14.5 0.00 0.00 0.00 75 1011.4
20260506071859 11 10 14.5 14.5 0.00 0.00 0.00 75 1011.7
20260506071359 11 10 14.5 14.5 0.00 0.00 0.00 75 1011.5
20260506070900 11 10 14.5 14.5 0.00 0.00 0.00 75 1011.1
20260506070359 11 10 14.5 16.1 0.00 0.00 0.00 75 1010.9
20260506062359 11 30 19.3 33.8 0.00 0.00 0.00 73 1010.9
20260506061859 11 30 19.3 33.8 0.00 0.00 0.00 73 1010.9
20260506061359 11 30 19.3 33.8 0.00 0.00 0.00 73 1011.1
20260506060900 11 30 19.3 33.8 0.00 0.00 0.00 72 1011.2
20260506060400 11 30 19.3 33.8 0.00 0.00 0.00 73 1011.1
20260506051359 12 10 14.5 14.5 0.00 0.00 0.00 73 1011.2
20260506050859 12 10 14.5 14.5 0.00 0.00 0.00 72 1011.2
20260506050400 12 10 14.5 37.0 0.00 0.00 0.00 73 1011.2
20260506044900 12 10 16.1 37.0 0.00 0.00 0.00 73 1011.2
20260506044359 12 10 16.1 16.1 0.00 0.00 0.00 73 1011.2
20260506043859 12 10 16.1 16.1 0.00 0.00 0.00 73 1011.1
20260506043400 12 10 16.1 16.1 0.00 0.00 0.00 73 1011.0
20260506042900 12 10 16.1 16.1 0.00 0.00 0.00 73 1011.0
20260506042359 12 10 16.1 16.1 0.00 0.00 0.00 73 1011.0
20260506041900 12 10 16.1 16.1 0.00 0.00 0.00 73 1011.2
20260506040859 12 10 16.1 16.1 0.00 0.00 0.00 74 1011.2
20260506040359 12 10 16.1 16.1 0.00 0.00 0.00 74 1011.1
20260506035900 12 20 16.1 16.1 0.00 0.00 0.00 74 1011.2
20260506035359 12 20 16.1 16.1 0.00 0.00 0.00 74 1011.2
20260506034900 12 20 16.1 38.6 0.00 0.00 0.00 74 1011.2
20260506034400 12 20 22.5 38.6 0.00 0.00 0.00 74 1011.1
20260506033859 12 20 22.5 38.6 0.00 0.00 0.00 75 1011.0
20260506033359 12 20 22.5 38.6 0.00 0.00 0.00 75 1010.9
20260506032900 12 10 22.5 33.8 0.00 0.00 0.00 75 1010.9
20260506032400 12 10 22.5 33.8 0.00 0.00 0.00 75 1010.6
20260506031900 12 10 22.5 33.8 0.00 0.00 0.00 75 1010.3
20260506031359 12 10 22.5 33.8 0.00 0.00 0.00 75 1010.1
20260506030900 12 10 22.5 33.8 0.00 0.00 0.00 75 1010.1
20260506030400 12 10 22.5 33.8 0.00 0.00 0.00 74 1009.8
20260506025900 12 0 20.9 20.9 0.00 0.00 0.00 74 1009.6
20260506025400 12 0 20.9 20.9 0.00 0.00 0.00 74 1009.5
20260506024900 12 0 20.9 20.9 0.00 0.00 0.00 74 1009.3
20260506024400 12 10 16.1 16.1 0.00 0.00 0.00 74 1009.3
20260506023900 13 10 16.1 16.1 0.00 0.00 0.00 75 1009.3
20260506022359 13 0 19.3 33.8 0.00 0.00 0.00 79 1009.1
20260506021859 13 0 19.3 33.8 0.00 0.00 0.00 79 1008.8
20260506021400 13 0 19.3 33.8 0.00 0.00 0.00 79 1008.7
20260506020900 13 0 19.3 33.8 0.00 0.00 0.00 79 1008.6
20260506015900 13 0 16.1 29.0 0.00 0.00 0.00 79 1008.3
20260506014859 13 0 16.1 29.0 0.00 0.00 0.00 79 1008.0
20260506014400 13 10 16.1 16.1 0.00 0.00 0.00 79 1008.0
20260506013900 13 10 16.1 16.1 0.00 0.00 0.00 79 1008.0
20260506013400 13 10 16.1 29.0 0.00 0.00 0.00 79 1008.1
20260506012900 13 10 16.1 29.0 0.00 0.00 0.00 79 1007.8
20260506012400 14 10 16.1 29.0 0.00 0.00 0.00 78 1007.7
20260506011900 14 10 16.1 29.0 0.00 0.00 0.00 78 1007.7
20260506011400 14 10 16.1 29.0 0.00 0.00 0.00 78 1007.7
20260506010900 14 10 16.1 29.0 0.00 0.00 0.00 78 1007.9
20260506010359 14 10 16.1 33.8 0.00 0.00 0.00 78 1007.6
20260506005859 14 0 14.5 33.8 0.00 0.00 0.00 78 1007.4
20260506005400 14 0 14.5 33.8 0.00 0.00 0.00 78 1007.5
20260506004900 15 0 14.5 33.8 0.00 0.00 0.00 76 1007.5
20260506004400 15 0 20.9 20.9 0.00 0.00 0.00 76 1007.5
20260506003400 15 0 20.9 32.2 0.00 0.00 0.00 76 1007.3
20260506002859 15 10 14.5 32.2 0.00 0.00 0.00 76 1007.0
20260506002400 15 10 14.5 32.2 0.00 0.00 0.00 75 1007.1
20260506001359 16 10 14.5 32.2 0.00 0.00 0.00 75 1006.9
20260506000900 16 10 14.5 32.2 0.00 0.00 0.00 75 1006.9
20260506000401 18 10 14.5 37.0 0.00 0.00 0.00 69 1006.9
20260505235400 18 350 20.9 37.0 0.00 0.00 0.00 69 1006.8
20260505234859 18 350 20.9 37.0 0.00 0.00 0.00 69 1006.7
20260505234400 18 330 16.1 32.2 0.00 0.00 0.00 69 1006.8
20260505233400 18 330 16.1 33.8 0.00 0.00 0.00 69 1006.8
20260505232900 18 330 20.9 33.8 0.00 0.00 0.00 69 1006.7
20260505232359 18 330 20.9 33.8 0.00 0.00 0.00 69 1006.7
20260505231400 18 330 20.9 33.8 0.00 0.00 0.00 68 1006.7
20260505230900 19 330 20.9 33.8 0.00 0.00 0.00 68 1006.5
20260505230400 19 330 20.9 33.8 0.00 0.00 0.00 68 1006.5
20260505225400 20 320 16.1 32.2 0.00 0.00 0.00 67 1006.3
20260505224901 20 320 16.1 32.2 0.00 0.00 0.00 67 1006.2
20260505224400 20 320 12.9 32.2 0.00 0.00 0.00 67 1006.0
20260505223900 20 320 12.9 32.2 0.00 0.00 0.00 68 1006.0
20260505223400 20 320 12.9 32.2 0.00 0.00 0.00 68 1005.9
20260505222900 20 340 16.1 29.0 0.00 0.00 0.00 68 1005.7
20260505222400 20 340 16.1 29.0 0.00 0.00 0.00 68 1005.5
20260505221900 20 340 16.1 29.0 0.00 0.00 0.00 68 1005.3
20260505221400 20 340 16.1 29.0 0.00 0.00 0.00 68 1005.4
20260505220900 21 340 16.1 29.0 0.00 0.00 0.00 67 1005.5
20260505220400 21 340 16.1 29.0 0.00 0.00 0.00 67 1005.4
20260505215400 21 310 12.9 12.9 0.00 0.00 0.00 66 1005.1
20260505214900 21 310 12.9 12.9 0.00 0.00 0.00 66 1005.0
20260505214400 22 320 12.9 12.9 0.00 0.00 0.00 65 1005.0
20260505213400 22 320 12.9 16.1 0.00 0.00 0.00 65 1004.9
20260505212900 22 320 16.1 16.1 0.00 0.00 0.00 65 1004.8
20260505211400 23 320 16.1 16.1 0.00 0.00 0.00 64 1004.6
20260505210900 23 320 16.1 16.1 0.00 0.00 0.00 64 1004.5
20260505210400 23 320 16.1 32.2 0.00 0.00 0.00 65 1004.6
20260505205900 23 300 14.5 32.2 0.00 0.00 0.00 64 1004.6
20260505204400 23 300 14.5 14.5 0.00 0.00 0.00 65 1004.5
20260505203900 24 300 14.5 14.5 0.00 0.00 0.00 64 1004.4
20260505203400 24 300 14.5 14.5 0.00 0.00 0.00 64 1004.4
20260505202900 24 300 12.9 12.9 0.00 0.00 0.00 63 1004.5
20260505202400 25 300 12.9 12.9 0.00 0.00 0.00 61 1004.4
20260505201900 25 300 12.9 12.9 0.00 0.00 0.00 60 1004.4
20260505201400 25 300 12.9 12.9 0.00 0.00 0.00 58 1004.2
20260505200900 26 300 12.9 12.9 0.00 0.00 0.00 57 1004.2
20260505200400 26 300 12.9 16.1 0.00 0.00 0.00 55 1004.1
20260505195900 26 250 16.1 16.1 0.00 0.00 0.00 52 1004.0
20260505195400 26 250 16.1 16.1 0.00 0.00 0.00 45 1003.9
20260505194901 27 250 16.1 16.1 0.00 0.00 0.00 42 1003.7
20260505194400 27 290 14.5 14.5 0.00 0.00 0.00 41 1003.7
20260505193900 27 290 14.5 14.5 0.00 0.00 0.00 39 1003.7
20260505192900 28 290 16.1 16.1 0.00 0.00 0.00 42 1003.5
20260505192400 28 290 16.1 16.1 0.00 0.00 0.00 41 1003.5
20260505190901 28 290 16.1 16.1 0.00 0.00 0.00 44 1003.5
20260505190400 28 290 16.1 16.1 0.00 0.00 0.00 42 1003.5
20260505185900 28 260 12.9 12.9 0.00 0.00 0.00 44 1003.4
20260505185400 28 260 12.9 12.9 0.00 0.00 0.00 45 1003.1
20260505184900 28 260 12.9 37.0 0.00 0.00 0.00 49 1002.9
20260505184400 28 240 22.5 37.0 0.00 0.00 0.00 52 1003.0
20260505183900 28 240 22.5 37.0 0.00 0.00 0.00 52 1002.9
20260505183400 28 240 22.5 37.0 0.00 0.00 0.00 54 1002.9
20260505182400 28 220 12.9 12.9 0.00 0.00 0.00 55 1003.0
20260505181900 28 220 12.9 12.9 0.00 0.00 0.00 56 1003.1
20260505181401 28 220 12.9 12.9 0.00 0.00 0.00 58 1003.2
20260505180900 27 220 12.9 12.9 0.00 0.00 0.00 60 1003.0
20260505180401 27 220 12.9 16.1 0.00 0.00 0.00 56 1002.9
20260505175900 27 240 16.1 16.1 0.00 0.00 0.00 59 1002.7
20260505174400 27 230 12.9 12.9 0.00 0.00 0.00 61 1002.8
20260505173400 26 230 12.9 12.9 0.00 0.00 0.00 63 1002.9
20260505172900 26 210 9.7 9.7 0.00 0.00 0.00 65 1002.7
20260505171900 26 210 9.7 9.7 0.00 0.00 0.00 65 1002.8
20260505170900 26 210 9.7 9.7 0.00 0.00 0.00 67 1003.0
20260505165901 26 200 11.3 11.3 0.00 0.00 0.00 70 1002.9
20260505165401 23 200 11.3 11.3 0.00 0.00 0.00 66 1003.0
20260505164900 23 200 11.3 14.5 0.00 0.00 0.00 66 1002.5
20260505164401 23 210 14.5 14.5 0.00 0.00 0.00 66 1002.6
20260505163900 23 210 14.5 14.5 0.00 0.00 0.00 66 1002.7
20260505163400 23 210 14.5 16.1 0.00 0.00 0.00 66 1002.6
20260505162901 23 200 16.1 16.1 0.00 0.00 0.00 66 1002.7
20260505162400 23 200 16.1 16.1 0.00 0.00 0.00 66 1002.5
20260505161901 23 200 16.1 16.1 0.00 0.00 0.00 66 1002.5
20260505161401 23 200 16.1 16.1 0.00 0.00 0.00 66 1002.4
20260505160400 23 200 16.1 37.0 0.00 0.00 0.00 66 1002.3
20260505152401 23 200 16.1 16.1 0.00 0.00 0.00 66 1001.9
20260505151900 23 200 16.1 16.1 0.00 0.00 0.00 66 1001.8
20260505150901 23 200 16.1 16.1 0.00 0.00 0.00 66 1001.9
20260505150400 23 200 16.1 16.1 0.00 0.00 0.00 66 1001.9
20260505140401 23 180 12.9 14.5 0.00 0.00 0.00 66 1001.8
20260505124901 23 190 19.3 19.3 0.00 0.00 0.00 66 1001.8
20260505124401 23 190 14.5 14.5 0.00 0.00 0.00 66 1001.9
20260505123901 23 190 14.5 14.5 0.00 0.00 0.00 66 1001.9
20260505123401 23 190 14.5 14.5 0.00 0.00 0.00 66 1001.8
20260505122900 23 190 12.9 12.9 0.00 0.00 0.00 66 1001.7
20260505122401 23 190 12.9 12.9 0.00 0.00 0.00 66 1001.5
20260505121901 23 190 12.9 12.9 0.00 0.00 0.00 66 1001.5
20260505121400 23 190 12.9 12.9 0.00 0.00 0.00 66 1001.4
20260505120900 23 190 12.9 12.9 0.00 0.00 0.00 66 1001.3
20260505120401 23 190 12.9 16.1 0.00 0.00 0.00 66 1001.3
20260505115901 23 180 16.1 16.1 0.00 0.00 0.00 66 1001.3
20260505115401 23 180 16.1 16.1 0.00 0.00 0.00 66 1001.2
20260505114901 23 180 16.1 16.1 0.00 0.00 0.00 66 1001.1
20260505114400 23 180 14.5 14.5 0.00 0.00 0.00 66 1001.0
20260505113900 23 180 14.5 14.5 0.00 0.00 0.00 66 1001.0
20260505113400 23 180 14.5 14.5 0.00 0.00 0.00 66 1001.0
20260505112900 23 190 14.5 14.5 0.00 0.00 0.00 66 1001.1
20260505112401 23 190 14.5 14.5 0.00 0.00 0.00 66 1001.0
20260505111900 23 190 14.5 14.5 0.00 0.00 0.00 66 1001.0
20260505110400 23 190 14.5 29.0 0.00 0.00 0.00 66 1001.1
20260505101901 23 180 16.1 16.1 0.00 0.00 0.00 66 1001.0
20260505101401 23 180 14.5 14.5 0.00 0.00 0.00 66 1001.1
20260505100901 23 180 14.5 14.5 0.00 0.00 0.00 66 1001.2
20260505100400 23 180 14.5 14.5 0.00 0.00 0.00 66 1001.2
20260505095901 23 180 14.5 14.5 0.00 0.00 0.00 66 1001.2
20260505094901 23 180 14.5 16.1 0.00 0.00 0.00 66 1001.2
20260505094400 23 190 16.1 16.1 0.00 0.00 0.00 66 1001.2
20260505093901 23 190 16.1 16.1 0.00 0.00 0.00 66 1001.1
20260505093400 23 190 16.1 16.1 0.00 0.00 0.00 66 1001.0
20260505092900 23 190 12.9 12.9 0.00 0.00 0.00 66 1001.0